Location: Bacharowice
(49.9333°N, 19.5833°E)
Time: 13:10:01
(UTC+00:00)

Cosmos 1867 - Pass Details

Date: 11 May 2021
Orbit: 773 x 802 km, 65.0° (Epoch: 22 June)

Event Time Altitude Azimuth Distance (km) Brightness Sun altitude
Exits shadow 23:25:58 30° 243° (WSW) 1,399 4.5 -21.1°
Maximum altitude 23:28:37 63° 315° (NW) 892 3.9 -21.0°
Drops below altitude 10° 23:34:04 10° 36° (NE) 2,384 7.0 -20.8°
Sets 23:36:33 0° 40° (NE) 3,320 7.9 -20.7°
